Regional Weather Roundup
Issued by NWS Northern Indiana

Home | Current Version | Previous Version | Graphics & Text | Print | Product List | Glossary On
Versions: 1 2 3 4 5 6 7 8 9 10 11 12 13 14 15 16 17 18 19 20 21 22 23 24 25 26 27 28 29 30 31 32 33 34 35 36 37 38 39 40 41 42 43 44 45 46 47 48 49 50
000
ASUS43 KIWX 270410
RWRIWX

KIWX WEATHER ROUNDUP
NATIONAL WEATHER SERVICE NORTHERN INDIANA
1100 PM EST SUN FEB 26 2017

NOTE: "FAIR" INDICATES FEW OR NO CLOUDS BELOW 12,000 FEET WITH NO
SIGNIFICANT WEATHER AND/OR OBSTRUCTIONS TO VISIBILITY.

* THESE STATIONS ARE NOT UNDER NWS QUALITY CONTROL. THEY ALSO MAY NOT
  REPORT WEATHER SUCH AS PRECIPITATION OR FOG.

INZ001>027-270500-
NORTHERN INDIANA

CITY           SKY/WX    TMP DP  RH WIND       PRES   REMARKS
GARY*          FAIR      39  22  50 SW7       30.08R
VALPARAISO     FAIR      36  23  59 SW8       30.09R
MICHIGAN CITY* FAIR      36  25  64 SW12      30.08R
LAPORTE*       FAIR      35  23  62 SW9       30.09R WCI  27
KNOX*          FAIR      34   3  27 SW8       30.09R WCI  27
SOUTH BEND     FAIR      36  21  54 SW10      30.08R
GOSHEN         FAIR      36  21  54 SW13      30.08R
MONTICELLO*    FAIR      34  22  60 S6        30.11R WCI  29
LOGANSPORT*    MOCLDY    32  27  80 SW7       30.12R WCI  26
ROCHESTER*     CLOUDY    41  27  56 SW8       30.11R
WARSAW*        FAIR      36  21  55 SW5       30.09S
ANGOLA*        CLEAR     36  21  55 SW10      30.07R
FORT WAYNE     MOCLDY    32  23  69 SW6       30.12R WCI  26
HUNTINGTON*    CLOUDY    39  23  52 SW7       30.12R
PERU/GRISSOM   CLOUDY    38  26  62 SW8       30.10R
MARION*        CLOUDY    37  26  65 S7        30.13S

$$
INZ028>050-270500-
CENTRAL INDIANA

CITY           SKY/WX    TMP DP  RH WIND       PRES   REMARKS
LAFAYETTE      CLOUDY    37  23  56 CALM      30.12R
KOKOMO*        CLOUDY    38  26  62 S7        30.13R
MUNCIE*        CLOUDY    41  20  43 S7        30.13S
INDIANAPOLIS   CLOUDY    40  16  37 S7        30.13S

$$
MIZ043>046-050>051-056>058-064>065-071>073-077>080-270500-
SOUTHWEST LOWER MICHIGAN

CITY           SKY/WX    TMP DP  RH WIND       PRES   REMARKS
BATTLE CREEK   CLOUDY    39  23  52 SW15      30.03R
BENTON HARBOR  CLOUDY    42  22  44 SW15G25   30.04R
COLDWATER*     FAIR      37  19  47 SW12G20   30.06R
HILLSDALE*     MOCLDY    36  21  55 SW13G18   30.05R
HOLLAND        MOCLDY    41  28  60 SW20G26   30.00R
GRAND RAPIDS   CLOUDY    39  23  52 SW10      29.99R
KALAMAZOO      CLOUDY    40  20  44 SW14      30.04R
STURGIS*       FAIR      35  23  60 SW13      30.06R WCI  27
THREE RIVERS*  FAIR      36  22  56 SW10      30.06S

$$
OHZ001>008-015>018-024>025-270500-
NORTHWEST OHIO

CITY           SKY/WX    TMP DP  RH WIND       PRES   REMARKS
WAUSEON*       FAIR      34  23  64 SW12      30.09R WCI  25
DEFIANCE       FAIR      33  21  61 S9        30.11S WCI  25
FINDLAY        FAIR      35  22  58 S10       30.13R WCI  27
TOLEDO EXPRESS FAIR      37  21  52 SW13      30.10R
TOLEDO METCALF FAIR      34  23  64 S9        30.12R WCI  27
LIMA           CLOUDY    37  21  52 S8        30.13S

$$
AND FOR LAKE MICHIGAN COASTAL AND OPEN LAKE BUOY OBSERVATIONS

STATION/POSITION TEMP    WIND        PRES    VSBY  WAVE
                 AIR SEA DIR/SP/G                  HT/PER
                 (F)     (DEG/KT/KT) (MB)    (MI)  (FT/S)
CALUMET HARBOR    40     200/ 11/ 15 1017.2R
MICHIGAN CITY     40     180/ 17/ 20   N/A
BURNS HARBOR      40     210/ 15/ 19 1018.6R
SAINT JOSEPH      40     210/ 20/ 25 1017.6

$$
&&




USA.gov is the U.S. government's official web portal to all federal, state and local government web resources and services.